Location: Furnace Creek
(36.4500°N, 116.8500°W)
Time: 00:28:43
(UTC-08:00)

Hubble Space Telescope - Visible Passes

Search period start: 01 December 2020 00:00
Search period end: 11 December 2020 00:00
Orbit: 536 x 540 km, 28.5° (Epoch: 30 November)

Date Brightness Start Highest point End Pass type
(mag) Time Alt. Az. Time Alt. Az. Time Alt. Az.
01 Dec 2.7 18:20:48 10° SSW 18:23:34 17° SSE 18:23:42 17° SSE visible
02 Dec 2.6 18:09:40 10° SW 18:12:41 20° SSE 18:13:33 18° SSE visible
03 Dec 2.6 17:58:36 10° SW 18:01:49 22° S 18:03:24 18° SE visible
04 Dec 2.5 17:47:36 10° SW 17:50:56 24° S 17:53:15 15° SE visible
04 Dec 3.9 19:28:12 10° WSW 19:28:34 12° WSW 19:28:34 12° WSW visible
05 Dec 2.5 17:36:39 10° SW 17:40:04 25° S 17:43:07 12° ESE visible
05 Dec 3.5 19:17:24 10° WSW 19:18:26 15° SW 19:18:26 15° SW visible
06 Dec 2.5 17:25:44 10° SW 17:29:12 26° S 17:32:40 10° ESE visible
06 Dec 3.2 19:06:39 10° WSW 19:08:21 18° SW 19:08:21 18° SW visible
07 Dec 2.5 17:14:50 10° WSW 17:18:20 27° S 17:21:49 10° ESE visible
07 Dec 3.0 18:55:56 10° WSW 18:58:18 19° SSW 18:58:18 19° SSW visible
08 Dec 2.6 17:03:59 10° WSW 17:07:28 26° S 17:10:58 10° SE visible
08 Dec 3.0 18:45:16 10° WSW 18:48:07 18° SSW 18:48:20 18° S visible
09 Dec 3.1 18:34:41 10° SW 18:37:13 16° SSW 18:38:29 14° S visible
10 Dec 3.4 18:24:15 10° SW 18:26:18 13° SSW 18:28:21 10° S visible
